Time,TemperatureF,DewpointF,PressureIn,WindDirection,WindDirectionDegrees,WindSpeedMPH,WindSpeedGustMPH,Humidity,HourlyPrecipIn,Conditions,Clouds,dailyrainin,SoftwareType,DateUTC
2013-08-08 00:01:00,72.1,62.2,30.05,SW,224,2.8,3.9,71,0.00,,BKN110,0.00,VWS V13.01,2013-08-08 04:01:00,
2013-08-08 00:06:00,72.1,61.8,30.05,SSW,193,0.0,0.0,70,0.00,,BKN110,0.00,VWS V13.01,2013-08-08 04:06:00,
2013-08-08 00:11:00,72.1,61.8,30.05,SSE,158,2.8,3.4,70,0.00,,BKN110,0.00,VWS V13.01,2013-08-08 04:11:00,
2013-08-08 00:16:00,72.1,61.8,30.05,SSE,151,3.4,3.4,70,0.00,,BKN110,0.00,VWS V13.01,2013-08-08 04:16:00,
2013-08-08 00:21:00,72.0,61.7,30.05,SSE,166,3.4,3.9,70,0.00,,BKN110,0.00,VWS V13.01,2013-08-08 04:21:00,
2013-08-08 00:26:00,71.8,61.5,30.05,SE,137,2.8,3.9,70,0.00,,BKN110,0.00,VWS V13.01,2013-08-08 04:26:00,
2013-08-08 00:31:00,71.8,61.5,30.05,SSE,154,0.0,0.0,70,0.00,,BKN110,0.00,VWS V13.01,2013-08-08 04:31:00,
2013-08-08 00:36:00,71.6,61.7,30.05,SSE,161,0.0,0.0,71,0.00,,BKN110,0.00,VWS V13.01,2013-08-08 04:36:00,
2013-08-08 00:41:00,71.6,61.7,30.05,SSW,206,0.0,0.0,71,0.00,,BKN110,0.00,VWS V13.01,2013-08-08 04:41:00,
2013-08-08 00:46:00,71.6,62.1,30.05,WSW,240,0.0,4.5,72,0.00,,BKN110,0.00,VWS V13.01,2013-08-08 04:46:00,
2013-08-08 00:51:00,71.4,62.3,30.05,South,180,0.0,0.0,73,0.00,,BKN110,0.00,VWS V13.01,2013-08-08 04:51:00,
2013-08-08 00:56:00,71.4,62.7,30.05,SW,222,0.0,0.0,74,0.00,,BKN110,0.00,VWS V13.01,2013-08-08 04:56:00,
2013-08-08 01:01:00,71.4,62.7,30.05,SSW,213,0.0,0.0,74,0.00,,SCT110,0.00,VWS V13.01,2013-08-08 05:01:00,
2013-08-08 01:06:00,71.4,62.7,30.05,SSW,213,0.0,0.0,74,0.00,,SCT110,0.00,VWS V13.01,2013-08-08 05:06:00,
2013-08-08 01:11:00,71.4,62.7,30.05,SE,145,0.0,0.0,74,0.00,,SCT110,0.00,VWS V13.01,2013-08-08 05:11:00,
2013-08-08 01:16:00,71.4,62.7,30.05,SE,140,2.8,3.9,74,0.00,,SCT120,0.00,VWS V13.01,2013-08-08 05:16:00,
2013-08-08 01:21:00,71.4,62.3,30.05,SE,146,3.4,3.9,73,0.00,,SCT120,0.00,VWS V13.01,2013-08-08 05:21:00,
2013-08-08 01:26:00,71.2,62.5,30.05,SSE,155,0.0,3.9,74,0.00,,SCT120,0.00,VWS V13.01,2013-08-08 05:26:00,
2013-08-08 01:31:00,71.1,62.4,30.05,SSE,156,0.0,3.9,74,0.00,,SCT120,0.00,VWS V13.01,2013-08-08 05:31:00,
2013-08-08 01:36:00,71.1,62.4,30.05,SSE,155,0.0,0.0,74,0.00,,SCT120,0.00,VWS V13.01,2013-08-08 05:36:00,
2013-08-08 01:41:00,70.9,62.2,30.05,SSE,160,0.0,2.8,74,0.00,,SCT120,0.00,VWS V13.01,2013-08-08 05:41:00,
2013-08-08 01:46:00,70.9,62.6,30.05,SSE,157,0.0,3.9,75,0.00,,SCT120,0.00,VWS V13.01,2013-08-08 05:46:00,
2013-08-08 01:51:00,70.7,62.4,30.05,SSE,151,0.0,0.0,75,0.00,,SCT120,0.00,VWS V13.01,2013-08-08 05:51:00,
2013-08-08 01:56:00,70.7,62.8,30.05,SSE,153,0.0,0.0,76,0.00,,SCT120,0.00,VWS V13.01,2013-08-08 05:56:00,
2013-08-08 02:01:00,70.7,62.8,30.05,SSE,167,2.8,3.4,76,0.00,,BKN120,0.00,VWS V13.01,2013-08-08 06:01:00,
2013-08-08 02:06:00,70.5,62.6,30.05,SE,143,2.8,3.4,76,0.00,,BKN120,0.00,VWS V13.01,2013-08-08 06:06:00,
2013-08-08 02:11:00,70.5,63.0,30.05,South,169,0.0,0.0,77,0.00,,BKN120,0.00,VWS V13.01,2013-08-08 06:11:00,
2013-08-08 02:16:00,70.3,62.8,30.05,SSE,165,5.0,5.0,77,0.00,,BKN120,0.00,VWS V13.01,2013-08-08 06:16:00,
2013-08-08 02:21:00,70.3,62.8,30.05,South,170,0.0,0.0,77,0.00,,BKN120,0.00,VWS V13.01,2013-08-08 06:21:00,
2013-08-08 02:26:00,70.2,63.0,30.02,SSE,156,0.0,3.4,78,0.00,,BKN120,0.00,VWS V13.01,2013-08-08 06:26:00,
2013-08-08 02:31:00,70.2,63.0,30.02,SSE,156,0.0,0.0,78,0.00,,BKN120,0.00,VWS V13.01,2013-08-08 06:31:00,
2013-08-08 02:36:00,70.2,63.3,30.02,SSE,156,3.9,3.9,79,0.00,,BKN120,0.00,VWS V13.01,2013-08-08 06:36:00,
2013-08-08 02:41:00,70.0,63.2,30.02,South,169,0.0,0.0,79,0.00,,OVC110,0.00,VWS V13.01,2013-08-08 06:41:00,
2013-08-08 02:46:00,70.0,63.2,30.02,SSE,157,0.0,0.0,79,0.00,,OVC110,0.00,VWS V13.01,2013-08-08 06:46:00,
2013-08-08 02:51:00,70.0,63.5,30.02,SSE,167,0.0,0.0,80,0.00,,OVC110,0.00,VWS V13.01,2013-08-08 06:51:00,
2013-08-08 02:56:00,69.8,63.4,30.02,SE,145,0.0,0.0,80,0.00,,OVC110,0.00,VWS V13.01,2013-08-08 06:56:00,
2013-08-08 03:01:00,69.8,63.4,30.02,SSE,158,0.0,0.0,80,0.00,,BKN120,0.00,VWS V13.01,2013-08-08 07:01:00,
2013-08-08 03:06:00,69.8,63.4,30.02,SSE,148,0.0,0.0,80,0.00,,BKN120,0.00,VWS V13.01,2013-08-08 07:06:00,
2013-08-08 03:11:00,69.6,63.5,30.02,South,180,0.0,2.8,81,0.00,,BKN120,0.00,VWS V13.01,2013-08-08 07:11:00,
2013-08-08 03:16:00,69.6,63.9,30.02,South,172,3.9,3.9,82,0.00,,BKN120,0.00,VWS V13.01,2013-08-08 07:16:00,
2013-08-08 03:21:00,69.6,64.2,30.02,SE,146,0.0,0.0,83,0.00,,SCT120,0.00,VWS V13.01,2013-08-08 07:21:00,
2013-08-08 03:26:00,69.6,64.2,30.02,SSE,154,3.4,5.0,83,0.00,,SCT120,0.00,VWS V13.01,2013-08-08 07:26:00,
2013-08-08 03:31:00,69.6,64.2,30.02,South,182,0.0,0.0,83,0.00,,SCT120,0.00,VWS V13.01,2013-08-08 07:31:00,
2013-08-08 03:36:00,69.6,64.6,30.02,South,182,0.0,0.0,84,0.00,,SCT120,0.00,VWS V13.01,2013-08-08 07:36:00,
2013-08-08 03:41:00,69.4,64.4,30.02,South,177,0.0,0.0,84,0.00,,CLR,0.00,VWS V13.01,2013-08-08 07:41:00,
2013-08-08 03:46:00,69.4,64.7,30.02,SSE,164,0.0,3.9,85,0.00,,CLR,0.00,VWS V13.01,2013-08-08 07:46:00,
2013-08-08 03:51:00,69.4,64.7,30.02,SSE,155,3.4,4.5,85,0.00,,CLR,0.00,VWS V13.01,2013-08-08 07:51:00,
2013-08-08 03:56:00,69.4,64.7,30.05,SSE,155,0.0,0.0,85,0.00,,CLR,0.00,VWS V13.01,2013-08-08 07:56:00,
2013-08-08 04:01:00,69.4,64.7,30.05,SSE,155,0.0,0.0,85,0.00,,SCT120,0.00,VWS V13.01,2013-08-08 08:01:00,
2013-08-08 04:06:00,69.3,64.2,30.05,SSE,155,0.0,0.0,84,0.00,,SCT120,0.00,VWS V13.01,2013-08-08 08:06:00,
2013-08-08 04:11:00,69.3,64.2,30.05,SSE,155,0.0,0.0,84,0.00,,SCT120,0.00,VWS V13.01,2013-08-08 08:11:00,
2013-08-08 04:16:00,69.1,64.4,30.05,SSE,155,0.0,0.0,85,0.00,,SCT120,0.00,VWS V13.01,2013-08-08 08:16:00,
2013-08-08 04:21:00,69.1,64.4,30.05,SSE,155,0.0,0.0,85,0.00,,BKN120,0.00,VWS V13.01,2013-08-08 08:21:00,
2013-08-08 04:26:00,69.1,64.4,30.05,SSE,155,0.0,0.0,85,0.00,,BKN120,0.00,VWS V13.01,2013-08-08 08:26:00,
2013-08-08 04:31:00,69.1,64.7,30.05,SSE,160,0.0,0.0,86,0.00,,BKN120,0.00,VWS V13.01,2013-08-08 08:31:00,
2013-08-08 04:36:00,69.1,64.7,30.05,SSE,154,0.0,2.8,86,0.00,,BKN120,0.00,VWS V13.01,2013-08-08 08:36:00,
2013-08-08 04:41:00,69.1,65.1,30.02,SSE,150,0.0,3.4,87,0.00,,,0.00,VWS V13.01,2013-08-08 08:41:00,
2013-08-08 04:46:00,69.1,65.4,30.02,South,169,0.0,0.0,88,0.00,,,0.00,VWS V13.01,2013-08-08 08:46:00,
2013-08-08 04:51:00,69.3,65.6,30.02,SSE,160,3.4,3.4,88,0.00,,,0.00,VWS V13.01,2013-08-08 08:51:00,
2013-08-08 04:56:00,69.3,65.9,30.02,SSE,160,3.4,3.4,89,0.00,,,0.00,VWS V13.01,2013-08-08 08:56:00,
2013-08-08 05:01:00,69.3,65.9,30.02,SSE,149,0.0,2.8,89,0.00,,BKN120,0.00,VWS V13.01,2013-08-08 09:01:00,
2013-08-08 05:06:00,69.3,65.9,30.02,SSE,152,0.0,2.8,89,0.00,,BKN120,0.00,VWS V13.01,2013-08-08 09:06:00,
2013-08-08 05:11:00,69.3,65.9,30.02,SSE,152,0.0,0.0,89,0.00,,BKN120,0.00,VWS V13.01,2013-08-08 09:11:00,
2013-08-08 05:16:00,69.4,66.1,30.02,SSE,152,0.0,0.0,89,0.00,,BKN120,0.00,VWS V13.01,2013-08-08 09:16:00,
2013-08-08 05:21:00,69.4,66.1,30.02,South,179,0.0,0.0,89,0.00,,,0.00,VWS V13.01,2013-08-08 09:21:00,
2013-08-08 05:26:00,69.4,66.1,30.02,South,186,3.4,3.4,89,0.00,,,0.00,VWS V13.01,2013-08-08 09:26:00,
2013-08-08 05:31:00,69.4,66.1,30.02,South,186,0.0,0.0,89,0.00,,,0.00,VWS V13.01,2013-08-08 09:31:00,
2013-08-08 05:36:00,69.4,66.1,30.02,South,186,0.0,0.0,89,0.00,,,0.00,VWS V13.01,2013-08-08 09:36:00,
2013-08-08 05:41:00,69.4,66.1,30.02,South,186,0.0,0.0,89,0.00,,,0.00,VWS V13.01,2013-08-08 09:41:00,
2013-08-08 05:46:00,69.6,66.2,30.02,South,186,0.0,0.0,89,0.00,,,0.00,VWS V13.01,2013-08-08 09:46:00,
2013-08-08 05:51:00,69.6,66.2,30.02,South,186,0.0,0.0,89,0.00,,,0.00,VWS V13.01,2013-08-08 09:51:00,
2013-08-08 05:56:00,69.4,66.1,30.02,South,186,0.0,0.0,89,0.00,,,0.00,VWS V13.01,2013-08-08 09:56:00,
2013-08-08 06:01:00,69.4,66.1,30.02,South,186,0.0,0.0,89,0.00,,,0.00,VWS V13.01,2013-08-08 10:01:00,
2013-08-08 06:06:00,69.6,66.2,30.02,South,186,0.0,0.0,89,0.00,,,0.00,VWS V13.01,2013-08-08 10:06:00,
2013-08-08 06:11:00,69.6,66.2,30.02,SSE,152,0.0,3.4,89,0.00,,,0.00,VWS V13.01,2013-08-08 10:11:00,
2013-08-08 06:16:00,69.6,66.2,30.02,SSW,199,0.0,0.0,89,0.00,,,0.00,VWS V13.01,2013-08-08 10:16:00,
2013-08-08 06:21:00,70.0,66.6,30.02,South,181,0.0,0.0,89,0.00,,OVC065,0.00,VWS V13.01,2013-08-08 10:21:00,
2013-08-08 06:26:00,70.2,66.4,30.02,SSW,205,0.0,0.0,88,0.00,,OVC065,0.00,VWS V13.01,2013-08-08 10:26:00,
2013-08-08 06:31:00,70.3,66.3,30.02,South,176,0.0,3.4,87,0.00,,OVC065,0.00,VWS V13.01,2013-08-08 10:31:00,
2013-08-08 06:36:00,70.3,66.0,30.02,South,181,3.9,3.9,86,0.00,,OVC065,0.00,VWS V13.01,2013-08-08 10:36:00,
2013-08-08 06:41:00,70.5,65.8,30.02,SSE,167,3.4,4.5,85,0.00,,OVC050,0.00,VWS V13.01,2013-08-08 10:41:00,
2013-08-08 06:46:00,70.5,64.8,30.02,South,173,0.0,5.0,82,0.00,,OVC050,0.00,VWS V13.01,2013-08-08 10:46:00,
2013-08-08 06:51:00,70.5,64.1,30.02,South,189,4.5,5.0,80,0.00,,OVC050,0.00,VWS V13.01,2013-08-08 10:51:00,
2013-08-08 06:56:00,70.7,63.9,30.02,South,173,3.4,4.5,79,0.00,,OVC050,0.00,VWS V13.01,2013-08-08 10:56:00,
2013-08-08 07:01:00,70.7,63.5,30.02,South,180,0.0,4.5,78,0.00,,,0.00,VWS V13.01,2013-08-08 11:01:00,
2013-08-08 07:06:00,70.9,63.7,30.02,SE,137,3.9,3.9,78,0.00,,,0.00,VWS V13.01,2013-08-08 11:06:00,
2013-08-08 07:11:00,71.1,63.5,30.02,SSE,153,3.4,3.9,77,0.00,,,0.00,VWS V13.01,2013-08-08 11:11:00,
2013-08-08 07:16:00,71.2,63.7,30.02,SSE,163,3.4,3.9,77,0.00,,,0.00,VWS V13.01,2013-08-08 11:16:00,
2013-08-08 07:21:00,71.4,63.5,30.02,SSE,147,3.9,3.9,76,0.00,,OVC048,0.00,VWS V13.01,2013-08-08 11:21:00,
2013-08-08 07:26:00,71.4,63.5,30.05,SSE,152,0.0,0.0,76,0.00,,OVC048,0.00,VWS V13.01,2013-08-08 11:26:00,
2013-08-08 07:31:00,71.6,62.9,30.05,SE,140,3.4,3.9,74,0.00,,OVC048,0.00,VWS V13.01,2013-08-08 11:31:00,
2013-08-08 07:36:00,71.6,62.9,30.05,SE,140,0.0,0.0,74,0.00,,OVC048,0.00,VWS V13.01,2013-08-08 11:36:00,
2013-08-08 07:41:00,71.8,63.1,30.05,SSE,149,2.8,3.4,74,0.00,,OVC075,0.00,VWS V13.01,2013-08-08 11:41:00,
2013-08-08 07:46:00,71.8,62.7,30.05,SE,145,0.0,0.0,73,0.00,,OVC075,0.00,VWS V13.01,2013-08-08 11:46:00,
2013-08-08 07:51:00,71.8,62.7,30.05,SE,132,3.4,3.9,73,0.00,,OVC075,0.00,VWS V13.01,2013-08-08 11:51:00,
2013-08-08 07:56:00,72.0,62.8,30.05,SE,133,2.8,3.4,73,0.00,,OVC075,0.00,VWS V13.01,2013-08-08 11:56:00,
2013-08-08 08:01:00,72.0,62.8,30.05,SE,135,0.0,0.0,73,0.00,,OVC075,0.00,VWS V13.01,2013-08-08 12:01:00,
2013-08-08 08:06:00,72.1,62.6,30.05,SE,135,0.0,0.0,72,0.00,,OVC075,0.00,VWS V13.01,2013-08-08 12:06:00,
2013-08-08 08:11:00,72.1,62.6,30.05,SE,135,0.0,0.0,72,0.00,,OVC075,0.00,VWS V13.01,2013-08-08 12:11:00,
2013-08-08 08:16:00,72.1,62.6,30.05,SE,135,0.0,0.0,72,0.00,,OVC075,0.00,VWS V13.01,2013-08-08 12:16:00,
2013-08-08 08:21:00,72.1,62.6,30.05,SE,135,0.0,0.0,72,0.00,,OVC075,0.00,VWS V13.01,2013-08-08 12:21:00,
2013-08-08 08:26:00,72.1,62.6,30.05,SE,135,0.0,0.0,72,0.00,,OVC075,0.00,VWS V13.01,2013-08-08 12:26:00,
2013-08-08 08:31:00,72.1,62.2,30.05,SE,135,0.0,0.0,71,0.00,,OVC075,0.00,VWS V13.01,2013-08-08 12:31:00,
2013-08-08 08:36:00,72.3,62.4,30.05,SSE,160,0.0,0.0,71,0.00,,OVC075,0.00,VWS V13.01,2013-08-08 12:36:00,
2013-08-08 08:41:00,72.3,62.4,30.05,SSE,165,0.0,2.8,71,0.00,,OVC075,0.00,VWS V13.01,2013-08-08 12:41:00,
2013-08-08 08:46:00,72.7,62.3,30.05,SSE,154,0.0,3.9,70,0.00,,OVC075,0.00,VWS V13.01,2013-08-08 12:46:00,
2013-08-08 08:51:00,73.0,62.7,30.05,SSE,153,3.9,3.9,70,0.00,,OVC075,0.00,VWS V13.01,2013-08-08 12:51:00,
2013-08-08 08:56:00,73.2,62.5,30.05,South,178,0.0,3.4,69,0.00,,OVC075,0.00,VWS V13.01,2013-08-08 12:56:00,
2013-08-08 09:01:00,73.6,62.0,30.05,SSE,154,3.4,3.4,67,0.00,,OVC075,0.00,VWS V13.01,2013-08-08 13:01:00,
2013-08-08 09:06:00,73.8,62.1,30.05,SE,141,0.0,5.0,67,0.00,,OVC075,0.00,VWS V13.01,2013-08-08 13:06:00,
2013-08-08 09:11:00,73.8,61.7,30.05,WSW,246,3.4,3.4,66,0.00,,OVC075,0.00,VWS V13.01,2013-08-08 13:11:00,
2013-08-08 09:16:00,73.8,61.3,30.05,South,190,3.4,4.5,65,0.00,,OVC075,0.00,VWS V13.01,2013-08-08 13:16:00,
2013-08-08 09:21:00,73.9,61.4,30.05,SSW,201,0.0,3.4,65,0.00,,OVC075,0.00,VWS V13.01,2013-08-08 13:21:00,
2013-08-08 09:26:00,74.1,61.2,30.05,ESE,116,4.5,4.5,64,0.00,,OVC075,0.00,VWS V13.01,2013-08-08 13:26:00,
2013-08-08 09:31:00,74.1,60.7,30.05,SSE,151,3.9,3.9,63,0.00,,OVC075,0.00,VWS V13.01,2013-08-08 13:31:00,
2013-08-08 09:36:00,73.9,60.6,30.05,SSE,168,0.0,3.9,63,0.00,,OVC075,0.00,VWS V13.01,2013-08-08 13:36:00,
2013-08-08 09:41:00,73.9,61.0,30.05,SE,127,3.4,3.9,64,0.00,,OVC048,0.00,VWS V13.01,2013-08-08 13:41:00,
2013-08-08 09:46:00,73.9,61.0,30.05,South,190,0.0,0.0,64,0.00,,OVC048,0.00,VWS V13.01,2013-08-08 13:46:00,
2013-08-08 09:51:00,73.9,61.0,30.05,ESE,118,2.8,3.9,64,0.00,,OVC048,0.00,VWS V13.01,2013-08-08 13:51:00,
2013-08-08 09:56:00,73.9,61.0,30.05,SSW,201,0.0,0.0,64,0.00,,OVC048,0.00,VWS V13.01,2013-08-08 13:56:00,
2013-08-08 10:01:00,74.1,61.2,30.05,SW,215,0.0,4.5,64,0.00,,RA,0.00,VWS V13.01,2013-08-08 14:01:00,
2013-08-08 10:06:00,74.1,61.2,30.05,SSE,152,2.8,4.5,64,0.00,,RA,0.00,VWS V13.01,2013-08-08 14:06:00,
2013-08-08 10:11:00,74.3,61.3,30.05,SSE,167,3.9,4.5,64,0.00,,RA,0.00,VWS V13.01,2013-08-08 14:11:00,
2013-08-08 10:16:00,74.5,61.5,30.05,South,188,3.9,6.7,64,0.00,,RA,0.00,VWS V13.01,2013-08-08 14:16:00,
2013-08-08 10:21:00,74.5,61.5,30.05,WSW,245,2.8,3.9,64,0.00,,OVC070,0.00,VWS V13.01,2013-08-08 14:21:00,
2013-08-08 10:26:00,74.7,61.7,30.05,SSE,159,3.9,3.9,64,0.00,,OVC070,0.00,VWS V13.01,2013-08-08 14:26:00,
2013-08-08 10:31:00,74.8,62.3,30.05,South,170,3.9,3.9,65,0.00,,OVC070,0.00,VWS V13.01,2013-08-08 14:31:00,
2013-08-08 10:36:00,75.0,62.0,30.05,West,271,3.4,5.0,64,0.00,,OVC070,0.00,VWS V13.01,2013-08-08 14:36:00,
2013-08-08 10:41:00,75.4,61.5,30.05,South,181,3.4,5.0,62,0.00,,OVC070,0.00,VWS V13.01,2013-08-08 14:41:00,
2013-08-08 10:46:00,75.9,62.0,30.05,WNW,282,0.0,6.7,62,0.00,,OVC070,0.00,VWS V13.01,2013-08-08 14:46:00,
2013-08-08 10:51:00,76.6,62.2,30.05,SE,141,2.8,5.0,61,0.00,,OVC070,0.00,VWS V13.01,2013-08-08 14:51:00,
2013-08-08 10:56:00,77.4,61.9,30.05,WSW,243,2.8,4.5,59,0.00,,OVC070,0.00,VWS V13.01,2013-08-08 14:56:00,
2013-08-08 11:01:00,78.3,62.8,30.05,SSE,152,6.2,6.2,59,0.00,,OVC095,0.00,VWS V13.01,2013-08-08 15:01:00,
2013-08-08 11:06:00,79.2,62.6,30.05,SSW,192,2.8,7.3,57,0.00,,OVC095,0.00,VWS V13.01,2013-08-08 15:06:00,
2013-08-08 11:11:00,79.5,62.0,30.05,SW,225,4.5,7.3,55,0.00,,OVC095,0.00,VWS V13.01,2013-08-08 15:11:00,
2013-08-08 11:16:00,79.9,62.3,30.05,West,263,3.9,5.6,55,0.00,,OVC095,0.00,VWS V13.01,2013-08-08 15:16:00,
2013-08-08 11:21:00,80.4,62.8,30.05,NW,304,7.8,7.8,55,0.00,,OVC050,0.00,VWS V13.01,2013-08-08 15:21:00,
2013-08-08 11:26:00,80.4,61.2,30.05,NW,309,0.0,3.9,52,0.00,,OVC050,0.00,VWS V13.01,2013-08-08 15:26:00,
2013-08-08 11:31:00,80.1,62.5,30.05,SE,134,2.8,3.9,55,0.00,,OVC050,0.00,VWS V13.01,2013-08-08 15:31:00,
2013-08-08 11:36:00,79.9,62.3,30.05,West,272,7.3,7.3,55,0.00,,OVC050,0.00,VWS V13.01,2013-08-08 15:36:00,
2013-08-08 11:41:00,79.2,61.6,30.05,SW,221,3.4,7.3,55,0.00,,OVC044,0.00,VWS V13.01,2013-08-08 15:41:00,
2013-08-08 11:46:00,78.8,61.3,30.05,West,271,3.4,3.4,55,0.00,,OVC044,0.00,VWS V13.01,2013-08-08 15:46:00,
2013-08-08 11:51:00,78.6,61.6,30.05,West,267,4.5,5.0,56,0.00,,OVC044,0.00,VWS V13.01,2013-08-08 15:51:00,
2013-08-08 11:56:00,78.1,61.1,30.05,WSW,246,3.4,3.9,56,0.00,,OVC044,0.00,VWS V13.01,2013-08-08 15:56:00,
2013-08-08 12:01:00,78.3,61.8,30.05,SW,236,7.8,8.4,57,0.00,,OVC042,0.00,VWS V13.01,2013-08-08 16:01:00,
2013-08-08 12:06:00,78.8,61.3,30.05,SSE,154,3.9,6.7,55,0.00,,OVC042,0.00,VWS V13.01,2013-08-08 16:06:00,
2013-08-08 12:11:00,79.5,62.0,30.05,South,181,3.9,7.3,55,0.00,,OVC042,0.00,VWS V13.01,2013-08-08 16:11:00,
2013-08-08 12:16:00,79.9,62.3,30.05,West,265,5.0,5.0,55,0.00,,OVC042,0.00,VWS V13.01,2013-08-08 16:16:00,
2013-08-08 12:21:00,79.9,60.7,30.05,WSW,257,2.8,7.3,52,0.00,,OVC042,0.00,VWS V13.01,2013-08-08 16:21:00,
2013-08-08 12:26:00,79.9,60.7,30.05,WSW,252,3.9,10.1,52,0.00,,OVC042,0.00,VWS V13.01,2013-08-08 16:26:00,
2013-08-08 12:31:00,80.1,61.9,30.05,West,268,6.7,6.7,54,0.00,,OVC042,0.00,VWS V13.01,2013-08-08 16:31:00,
2013-08-08 12:36:00,80.4,62.8,30.05,WSW,256,6.2,7.8,55,0.00,,OVC042,0.00,VWS V13.01,2013-08-08 16:36:00,
2013-08-08 12:41:00,80.8,62.6,30.05,South,188,3.4,6.2,54,0.00,,OVC042,0.00,VWS V13.01,2013-08-08 16:41:00,
2013-08-08 12:46:00,80.8,61.5,30.05,SSW,195,7.3,7.8,52,0.00,,OVC042,0.00,VWS V13.01,2013-08-08 16:46:00,
2013-08-08 12:51:00,80.8,61.5,30.05,SE,130,5.6,9.5,52,0.00,,OVC042,0.00,VWS V13.01,2013-08-08 16:51:00,
2013-08-08 12:56:00,81.0,61.7,30.05,SE,143,7.3,10.1,52,0.00,,OVC042,0.00,VWS V13.01,2013-08-08 16:56:00,
2013-08-08 13:01:00,80.6,61.4,30.05,SSW,211,3.9,4.5,52,0.00,,BKN110,0.00,VWS V13.01,2013-08-08 17:01:00,
2013-08-08 13:06:00,80.6,61.9,30.05,SSE,157,6.7,7.3,53,0.00,,BKN110,0.00,VWS V13.01,2013-08-08 17:06:00,
2013-08-08 13:11:00,80.2,61.0,30.05,NW,317,0.0,10.1,52,0.00,,BKN110,0.00,VWS V13.01,2013-08-08 17:11:00,
2013-08-08 13:16:00,80.1,61.4,30.05,WSW,250,3.9,9.5,53,0.00,,BKN110,0.00,VWS V13.01,2013-08-08 17:16:00,
2013-08-08 13:21:00,80.2,61.6,30.05,East,86,3.4,6.2,53,0.00,,OVC110,0.00,VWS V13.01,2013-08-08 17:21:00,
2013-08-08 13:26:00,80.4,61.2,30.05,SE,140,6.7,9.5,52,0.00,,OVC110,0.00,VWS V13.01,2013-08-08 17:26:00,
2013-08-08 13:31:00,80.2,61.6,30.05,ESE,109,3.9,7.3,53,0.00,,OVC110,0.00,VWS V13.01,2013-08-08 17:31:00,
2013-08-08 13:36:00,80.6,62.4,30.05,South,190,5.0,5.0,54,0.00,,OVC110,0.00,VWS V13.01,2013-08-08 17:36:00,
2013-08-08 13:41:00,81.0,61.2,30.05,East,84,3.9,7.8,51,0.00,,BKN110,0.00,VWS V13.01,2013-08-08 17:41:00,
2013-08-08 13:46:00,80.8,60.4,30.05,SSW,210,3.4,6.2,50,0.00,,BKN110,0.00,VWS V13.01,2013-08-08 17:46:00,
2013-08-08 13:51:00,80.8,61.5,30.05,SW,220,4.5,7.8,52,0.00,,BKN110,0.00,VWS V13.01,2013-08-08 17:51:00,
2013-08-08 13:56:00,81.0,61.7,30.05,SW,236,4.5,10.1,52,0.00,,BKN110,0.00,VWS V13.01,2013-08-08 17:56:00,
2013-08-08 14:01:00,81.0,61.2,30.02,SE,129,2.8,5.0,51,0.00,,OVC075,0.00,VWS V13.01,2013-08-08 18:01:00,
2013-08-08 14:06:00,81.0,61.7,30.02,ESE,120,4.5,5.6,52,0.00,,OVC075,0.00,VWS V13.01,2013-08-08 18:06:00,
2013-08-08 14:11:00,81.7,63.4,30.02,West,265,3.4,5.0,54,0.00,,OVC075,0.00,VWS V13.01,2013-08-08 18:11:00,
2013-08-08 14:16:00,82.8,62.8,30.02,SSE,157,4.5,4.5,51,0.00,,OVC075,0.00,VWS V13.01,2013-08-08 18:16:00,
2013-08-08 14:21:00,82.9,61.2,30.02,WSW,257,2.8,6.7,48,0.00,,RA,0.00,VWS V13.01,2013-08-08 18:21:00,
2013-08-08 14:26:00,82.6,60.9,30.02,SSE,162,4.5,5.0,48,0.00,,RA,0.00,VWS V13.01,2013-08-08 18:26:00,
2013-08-08 14:31:00,82.0,60.4,30.02,South,183,7.3,8.9,48,0.00,,RA,0.00,VWS V13.01,2013-08-08 18:31:00,
2013-08-08 14:36:00,81.5,60.5,30.02,WSW,239,6.7,6.7,49,0.00,,RA,0.00,VWS V13.01,2013-08-08 18:36:00,
2013-08-08 14:41:00,81.0,61.2,30.02,SSW,200,5.0,7.3,51,0.00,,OVC043,0.00,VWS V13.01,2013-08-08 18:41:00,
2013-08-08 14:46:00,80.6,61.9,30.02,SW,215,8.9,8.9,53,0.00,,OVC043,0.00,VWS V13.01,2013-08-08 18:46:00,
2013-08-08 14:52:00,80.6,63.0,30.02,WSW,244,3.4,4.5,55,0.00,,OVC043,0.00,VWS V13.01,2013-08-08 18:52:00,
2013-08-08 14:57:00,80.8,63.1,30.02,West,270,3.9,5.6,55,0.00,,OVC043,0.00,VWS V13.01,2013-08-08 18:57:00,
2013-08-08 15:02:00,81.1,64.0,30.02,NW,307,0.0,3.4,56,0.00,,SCT039,0.00,VWS V13.01,2013-08-08 19:02:00,
2013-08-08 15:07:00,81.3,64.1,30.02,SSW,206,0.0,0.0,56,0.00,,SCT039,0.00,VWS V13.01,2013-08-08 19:07:00,
2013-08-08 15:12:00,81.1,62.9,30.02,SE,137,5.0,7.8,54,0.00,,SCT039,0.00,VWS V13.01,2013-08-08 19:12:00,
2013-08-08 15:17:00,80.8,62.6,30.02,SSE,164,3.4,3.9,54,0.00,,SCT039,0.00,VWS V13.01,2013-08-08 19:17:00,
2013-08-08 15:22:00,80.8,62.6,30.02,South,182,3.9,6.2,54,0.00,,SCT048,0.00,VWS V13.01,2013-08-08 19:22:00,
2013-08-08 15:27:00,81.1,62.9,30.02,SSW,194,4.5,4.5,54,0.00,,SCT048,0.00,VWS V13.01,2013-08-08 19:27:00,
2013-08-08 15:32:00,82.0,63.8,30.02,SSE,149,10.1,10.1,54,0.00,,SCT048,0.00,VWS V13.01,2013-08-08 19:32:00,
2013-08-08 15:37:00,82.6,62.6,30.02,South,184,3.9,10.1,51,0.00,,SCT048,0.00,VWS V13.01,2013-08-08 19:37:00,
2013-08-08 15:42:00,82.6,62.6,30.02,SW,228,4.5,6.7,51,0.00,,BKN100,0.00,VWS V13.01,2013-08-08 19:42:00,
2013-08-08 15:47:00,82.6,63.7,30.02,SE,130,3.9,5.6,53,0.00,,BKN100,0.00,VWS V13.01,2013-08-08 19:47:00,
2013-08-08 15:52:00,82.6,62.6,30.02,West,273,7.3,7.3,51,0.00,,BKN100,0.00,VWS V13.01,2013-08-08 19:52:00,
2013-08-08 15:56:00,82.4,63.0,29.99,SW,234,4.5,4.5,52,0.00,,BKN100,0.00,VWS V13.01,2013-08-08 19:56:00,
2013-08-08 16:02:00,81.9,63.1,29.99,WSW,251,3.4,6.2,53,0.00,,SCT080,0.00,VWS V13.01,2013-08-08 20:02:00,
2013-08-08 16:07:00,81.5,62.7,29.99,South,172,4.5,6.7,53,0.00,,SCT080,0.00,VWS V13.01,2013-08-08 20:07:00,
2013-08-08 16:12:00,81.1,62.4,29.99,SW,217,6.7,6.7,53,0.00,,SCT080,0.00,VWS V13.01,2013-08-08 20:12:00,
2013-08-08 16:17:00,81.0,62.8,29.99,SW,217,3.9,5.0,54,0.00,,SCT080,0.00,VWS V13.01,2013-08-08 20:17:00,
2013-08-08 16:22:00,80.8,63.1,29.99,SSE,163,3.9,7.8,55,0.00,,SCT090,0.00,VWS V13.01,2013-08-08 20:22:00,
2013-08-08 16:27:00,80.4,62.8,29.99,South,175,4.5,4.5,55,0.00,,SCT090,0.00,VWS V13.01,2013-08-08 20:27:00,
2013-08-08 16:32:00,80.1,63.0,29.99,WSW,257,7.3,7.8,56,0.00,,SCT090,0.00,VWS V13.01,2013-08-08 20:32:00,
2013-08-08 16:37:00,79.7,62.6,29.99,NW,305,0.0,10.1,56,0.00,,-RA,0.00,VWS V13.01,2013-08-08 20:37:00,
2013-08-08 16:42:00,79.2,62.6,29.99,SSE,160,4.5,10.3,57,0.00,,-RA,0.00,VWS V13.01,2013-08-08 20:42:00,
2013-08-08 16:47:00,78.8,62.3,29.99,South,180,6.7,8.4,57,0.00,,-RA,0.00,VWS V13.01,2013-08-08 20:47:00,
2013-08-08 16:52:00,78.6,62.6,29.99,WSW,255,6.7,7.3,58,0.00,,-RA,0.00,VWS V13.01,2013-08-08 20:52:00,
2013-08-08 16:57:00,78.4,62.9,29.99,SE,136,3.9,6.7,59,0.00,,-RA,0.00,VWS V13.01,2013-08-08 20:57:00,
2013-08-08 17:02:00,78.1,63.1,29.99,SSW,211,6.2,6.2,60,0.00,,-RA,0.00,VWS V13.01,2013-08-08 21:02:00,
2013-08-08 17:07:00,77.9,63.8,29.99,West,267,4.5,6.2,62,0.00,,-RA,0.00,VWS V13.01,2013-08-08 21:07:00,
2013-08-08 17:12:00,77.7,64.6,29.99,WNW,284,6.2,6.2,64,0.00,,-RA,0.00,VWS V13.01,2013-08-08 21:12:00,
2013-08-08 17:17:00,77.5,64.9,29.99,West,267,0.0,0.0,65,0.00,,-RA,0.00,VWS V13.01,2013-08-08 21:17:00,
2013-08-08 17:23:00,77.5,64.9,29.99,WSW,243,4.5,5.0,65,0.00,,OVC100,0.00,VWS V13.01,2013-08-08 21:23:00,
2013-08-08 17:28:00,77.7,65.0,29.99,SSE,163,4.5,6.7,65,0.00,,OVC100,0.00,VWS V13.01,2013-08-08 21:28:00,
2013-08-08 17:33:00,77.9,65.2,29.99,SSE,161,0.0,4.5,65,0.00,,OVC100,0.00,VWS V13.01,2013-08-08 21:33:00,
2013-08-08 17:38:00,78.1,65.4,29.99,SE,127,5.0,5.0,65,0.00,,OVC100,0.00,VWS V13.01,2013-08-08 21:38:00,
2013-08-08 17:43:00,78.1,64.9,29.99,SE,126,0.0,5.0,64,0.00,,SCT100,0.00,VWS V13.01,2013-08-08 21:43:00,
2013-08-08 17:48:00,78.3,65.1,29.99,South,171,0.0,0.0,64,0.00,,SCT100,0.00,VWS V13.01,2013-08-08 21:48:00,
2013-08-08 17:53:00,78.4,65.3,29.99,SSE,147,3.4,5.0,64,0.00,,SCT100,0.00,VWS V13.01,2013-08-08 21:53:00,
2013-08-08 17:59:00,78.6,64.5,29.99,WSW,245,5.0,7.8,62,0.00,,SCT100,0.00,VWS V13.01,2013-08-08 21:59:00,
2013-08-08 18:04:00,78.4,63.9,29.99,SSW,197,0.0,3.9,61,0.00,,SCT120,0.00,VWS V13.01,2013-08-08 22:04:00,
2013-08-08 18:09:00,78.4,63.9,29.99,South,169,4.5,4.5,61,0.00,,SCT120,0.00,VWS V13.01,2013-08-08 22:09:00,
2013-08-08 18:14:00,78.6,63.6,29.99,WSW,244,3.4,4.5,60,0.00,,SCT120,0.00,VWS V13.01,2013-08-08 22:14:00,
2013-08-08 18:19:00,78.6,63.6,29.99,South,181,0.0,3.9,60,0.00,,SCT120,0.00,VWS V13.01,2013-08-08 22:19:00,
2013-08-08 18:25:00,78.8,63.8,29.99,SSW,202,0.0,3.9,60,0.00,,BKN120,0.00,VWS V13.01,2013-08-08 22:25:00,
2013-08-08 18:30:00,78.6,63.6,29.99,South,182,3.4,6.7,60,0.00,,BKN120,0.00,VWS V13.01,2013-08-08 22:30:00,
2013-08-08 18:35:00,78.4,63.4,29.99,SSE,157,3.9,5.0,60,0.00,,BKN120,0.00,VWS V13.01,2013-08-08 22:35:00,
2013-08-08 18:40:00,78.3,63.2,29.99,South,189,0.0,2.8,60,0.00,,BKN120,0.00,VWS V13.01,2013-08-08 22:40:00,
2013-08-08 18:45:00,78.3,63.7,29.99,SW,231,0.0,3.4,61,0.00,,SCT120,0.00,VWS V13.01,2013-08-08 22:45:00,
2013-08-08 18:50:00,78.1,63.5,29.99,WSW,246,3.9,4.5,61,0.00,,SCT120,0.00,VWS V13.01,2013-08-08 22:50:00,
2013-08-08 18:55:00,78.1,63.5,29.99,SSW,196,3.4,3.9,61,0.00,,SCT120,0.00,VWS V13.01,2013-08-08 22:55:00,
2013-08-08 19:00:00,77.9,63.8,29.99,ESE,109,3.9,3.9,62,0.00,,BKN095,0.00,VWS V13.01,2013-08-08 23:00:00,
2013-08-08 19:05:00,77.9,63.8,29.99,South,175,6.7,6.7,62,0.00,,BKN095,0.00,VWS V13.01,2013-08-08 23:05:00,
2013-08-08 19:11:00,77.7,63.7,29.99,SSE,159,0.0,6.7,62,0.00,,BKN095,0.00,VWS V13.01,2013-08-08 23:11:00,
2013-08-08 19:16:00,77.7,64.1,29.99,SSE,163,0.0,5.0,63,0.00,,BKN095,0.00,VWS V13.01,2013-08-08 23:16:00,
2013-08-08 19:21:00,77.5,64.0,29.99,South,177,4.5,4.5,63,0.00,,BKN037,0.00,VWS V13.01,2013-08-08 23:21:00,
2013-08-08 19:26:00,77.4,64.2,30.02,WSW,254,0.0,3.9,64,0.00,,BKN037,0.00,VWS V13.01,2013-08-08 23:26:00,
2013-08-08 19:31:00,77.2,64.1,30.02,SW,214,3.4,7.8,64,0.00,,BKN037,0.00,VWS V13.01,2013-08-08 23:31:00,
2013-08-08 19:36:00,77.0,63.9,30.02,SW,216,3.4,5.0,64,0.00,,SCT120,0.00,VWS V13.01,2013-08-08 23:36:00,
2013-08-08 19:42:00,76.8,64.2,30.02,SW,224,2.8,3.9,65,0.00,,SCT120,0.00,VWS V13.01,2013-08-08 23:42:00,
2013-08-08 19:47:00,76.6,64.4,30.02,SSE,165,0.0,6.2,66,0.00,,SCT120,0.00,VWS V13.01,2013-08-08 23:47:00,
2013-08-08 19:52:00,76.5,64.3,30.02,South,169,2.8,2.8,66,0.00,,SCT120,0.00,VWS V13.01,2013-08-08 23:52:00,
2013-08-08 19:57:00,76.1,63.9,30.02,SW,222,3.9,4.5,66,0.00,,SCT120,0.00,VWS V13.01,2013-08-08 23:57:00,
2013-08-08 20:02:00,75.9,63.8,30.02,South,179,0.0,7.3,66,0.00,,-RA,0.00,VWS V13.01,2013-08-09 00:02:00,
2013-08-08 20:08:00,75.7,63.6,30.02,South,171,4.5,4.5,66,0.00,,-RA,0.00,VWS V13.01,2013-08-09 00:08:00,
2013-08-08 20:13:00,75.4,63.2,30.02,SSW,195,5.0,5.0,66,0.00,,-RA,0.00,VWS V13.01,2013-08-09 00:13:00,
2013-08-08 20:18:00,75.2,63.1,30.02,WSW,243,0.0,0.0,66,0.00,,-RA,0.00,VWS V13.01,2013-08-09 00:18:00,
2013-08-08 20:23:00,75.0,63.3,30.02,SW,219,0.0,3.4,67,0.00,,SCT120,0.00,VWS V13.01,2013-08-09 00:23:00,
2013-08-08 20:28:00,74.8,63.2,30.02,SW,234,4.5,6.7,67,0.00,,SCT120,0.00,VWS V13.01,2013-08-09 00:28:00,
2013-08-08 20:33:00,74.7,63.4,30.02,SW,223,2.8,3.9,68,0.00,,SCT120,0.00,VWS V13.01,2013-08-09 00:33:00,
2013-08-08 20:38:00,74.7,63.4,30.02,West,273,3.9,4.5,68,0.00,,SCT120,0.00,VWS V13.01,2013-08-09 00:38:00,
2013-08-08 20:43:00,74.5,63.2,30.02,South,182,2.8,6.7,68,0.00,,BKN120,0.00,VWS V13.01,2013-08-09 00:43:00,
2013-08-08 20:48:00,74.5,63.7,30.02,West,274,5.0,6.2,69,0.00,,BKN120,0.00,VWS V13.01,2013-08-09 00:48:00,
2013-08-08 20:54:00,74.5,63.7,30.02,South,178,6.7,6.7,69,0.00,,BKN120,0.00,VWS V13.01,2013-08-09 00:54:00,
2013-08-08 20:59:00,74.5,63.7,30.02,SSE,162,3.4,3.4,69,0.00,,BKN120,0.00,VWS V13.01,2013-08-09 00:59:00,
2013-08-08 21:04:00,74.5,63.7,30.02,South,191,3.4,4.5,69,0.00,,BKN120,0.00,VWS V13.01,2013-08-09 01:04:00,
2013-08-08 21:09:00,74.3,63.5,30.02,SW,230,4.5,4.5,69,0.00,,BKN120,0.00,VWS V13.01,2013-08-09 01:09:00,
2013-08-08 21:14:00,74.1,63.7,30.02,SW,221,0.0,2.8,70,0.00,,BKN120,0.00,VWS V13.01,2013-08-09 01:14:00,
2013-08-08 21:19:00,73.9,63.5,30.02,SSE,159,3.4,3.9,70,0.00,,BKN120,0.00,VWS V13.01,2013-08-09 01:19:00,
2013-08-08 21:24:00,73.9,64.0,30.02,South,188,3.9,3.9,71,0.00,,BKN110,0.00,VWS V13.01,2013-08-09 01:24:00,
2013-08-08 21:29:00,73.8,63.8,30.02,SSE,147,3.4,3.4,71,0.00,,BKN110,0.00,VWS V13.01,2013-08-09 01:29:00,
2013-08-08 21:35:00,73.8,64.2,30.02,SE,141,0.0,2.8,72,0.00,,BKN110,0.00,VWS V13.01,2013-08-09 01:35:00,
2013-08-08 21:40:00,73.6,64.0,30.02,SSE,154,3.4,4.5,72,0.00,,BKN110,0.00,VWS V13.01,2013-08-09 01:40:00,
2013-08-08 21:45:00,73.6,64.4,30.02,South,173,0.0,0.0,73,0.00,,BKN110,0.00,VWS V13.01,2013-08-09 01:45:00,
2013-08-08 21:50:00,73.6,64.4,30.02,SSE,155,0.0,0.0,73,0.00,,BKN110,0.00,VWS V13.01,2013-08-09 01:50:00,
2013-08-08 21:55:00,73.4,64.2,30.02,SSE,157,2.8,2.8,73,0.00,,BKN110,0.00,VWS V13.01,2013-08-09 01:55:00,
2013-08-08 22:00:00,73.4,64.2,30.02,South,191,0.0,0.0,73,0.00,,BKN110,0.00,VWS V13.01,2013-08-09 02:00:00,
2013-08-08 22:05:00,73.2,64.4,30.02,SSE,159,0.0,0.0,74,0.00,,BKN120,0.00,VWS V13.01,2013-08-09 02:05:00,
2013-08-08 22:10:00,73.0,64.3,30.02,SE,137,3.4,3.4,74,0.00,,BKN120,0.00,VWS V13.01,2013-08-09 02:10:00,
2013-08-08 22:15:00,73.0,64.3,30.02,SE,137,0.0,0.0,74,0.00,,SCT120,0.00,VWS V13.01,2013-08-09 02:15:00,
2013-08-08 22:21:00,72.9,64.5,30.02,SE,137,0.0,0.0,75,0.00,,SCT120,0.00,VWS V13.01,2013-08-09 02:21:00,
2013-08-08 22:26:00,72.9,64.5,30.02,SE,137,0.0,0.0,75,0.00,,SCT120,0.00,VWS V13.01,2013-08-09 02:26:00,
2013-08-08 22:31:00,72.7,64.3,30.02,SE,137,0.0,0.0,75,0.00,,SCT120,0.00,VWS V13.01,2013-08-09 02:31:00,
2013-08-08 22:36:00,72.7,64.7,30.02,SE,142,0.0,0.0,76,0.00,,SCT120,0.00,VWS V13.01,2013-08-09 02:36:00,
2013-08-08 22:41:00,72.7,65.1,30.02,SSE,168,0.0,0.0,77,0.00,,BKN120,0.00,VWS V13.01,2013-08-09 02:41:00,
2013-08-08 22:46:00,72.5,65.3,30.02,SSE,149,0.0,3.4,78,0.00,,BKN120,0.00,VWS V13.01,2013-08-09 02:46:00,
2013-08-08 22:52:00,72.5,65.3,30.02,South,170,0.0,0.0,78,0.00,,BKN120,0.00,VWS V13.01,2013-08-09 02:52:00,
2013-08-08 22:57:00,72.5,65.6,30.02,SW,231,0.0,0.0,79,0.00,,BKN120,0.00,VWS V13.01,2013-08-09 02:57:00,
2013-08-08 23:02:00,72.5,65.6,30.02,South,183,0.0,0.0,79,0.00,,BKN085,0.00,VWS V13.01,2013-08-09 03:02:00,
2013-08-08 23:07:00,72.5,65.6,30.02,South,183,0.0,0.0,79,0.00,,BKN085,0.00,VWS V13.01,2013-08-09 03:07:00,
2013-08-08 23:12:00,72.5,66.0,29.99,SSW,206,0.0,4.5,80,0.00,,BKN085,0.00,VWS V13.01,2013-08-09 03:12:00,
2013-08-08 23:17:00,72.5,66.0,29.99,SE,125,0.0,0.0,80,0.00,,BKN085,0.00,VWS V13.01,2013-08-09 03:17:00,
2013-08-08 23:22:00,72.3,65.8,29.99,WSW,249,0.0,0.0,80,0.00,,SCT085,0.00,VWS V13.01,2013-08-09 03:22:00,
2013-08-08 23:28:00,72.3,65.8,29.99,SE,134,0.0,0.0,80,0.00,,SCT085,0.00,VWS V13.01,2013-08-09 03:28:00,
2013-08-08 23:33:00,72.3,66.2,29.99,SSW,209,0.0,0.0,81,0.00,,SCT085,0.00,VWS V13.01,2013-08-09 03:33:00,
2013-08-08 23:38:00,72.3,66.2,29.99,SE,134,0.0,0.0,81,0.00,,CLR,0.00,VWS V13.01,2013-08-09 03:38:00,
2013-08-08 23:43:00,72.3,66.5,29.99,SSE,157,4.5,4.5,82,0.00,,CLR,0.00,VWS V13.01,2013-08-09 03:43:00,
2013-08-08 23:48:00,72.3,66.5,29.99,SSE,163,3.4,5.0,82,0.00,,CLR,0.00,VWS V13.01,2013-08-09 03:48:00,
2013-08-08 23:53:00,72.3,66.5,29.99,South,178,0.0,3.9,82,0.00,,CLR,0.00,VWS V13.01,2013-08-09 03:53:00,
2013-08-08 23:58:00,72.1,66.3,29.99,WSW,244,2.8,3.9,82,0.00,,CLR,0.00,VWS V13.01,2013-08-09 03:58:00,